#timestamp,LO_Frequency,Hit,StdDev 
1665838815.8,286046996.5,N
1665838835.6,286046997.7,N
1665838855.5,286046996.7,N
1665838875.3,286046999.1,N
1665838895.1,286046997.4,N
1665838915.9,286046997.9,N
1665838935.7,286046997.2,N
1665838955.5,286046997.0,N
1665838975.4,286046996.5,N
1665838995.2,286046999.6,N
1665839015.0,286046997.1,N
1665839016.0,286046997.1,N
1665839035.8,286046999.6,N
1665839055.6,286046996.5,N
1665839075.5,286046997.7,N
1665839095.3,286046995.4,Y
1665839115.1,286046999.1,P
1665839135.9,286046999.9,N
1665839155.7,286047000.5,N
1665839175.5,286047001.2,N
1665839195.4,286046998.1,N
1665839215.2,286047000.4,N
1665839235.1,286046998.5,N
1665839236.0,286046998.5,N
1665839255.8,286047000.7,N
1665839275.6,286047000.8,N
1665839295.5,286047000.7,N
1665839315.3,286046998.5,N
1665839335.1,286047000.4,N
1665839355.9,286046999.9,N
1665839375.7,286047002.8,N
1665839395.6,286047000.6,N
1665839415.4,286047002.2,N
1665839435.2,286047001.5,N
1665839455.1,286047002.0,N
1665839456.0,286047002.0,N
1665839475.8,286046999.7,N
1665839495.6,286046999.9,N
1665839515.5,286047001.1,N
1665839535.3,286046998.8,N
1665839555.2,286046998.5,N
1665839575.9,286047002.2,N
1665839595.7,286047001.8,N
1665839615.6,286047002.2,N
1665839635.4,286047002.3,N
1665839655.2,286047002.6,N
1665839675.1,286047003.4,N
1665839676.0,286047003.4,N
1665839695.8,286047003.4,N
1665839715.7,286047001.3,N
1665839735.5,286047002.3,N
1665839755.3,286047002.6,N
1665839775.2,286047002.8,N
1665839795.9,286046998.7,N
1665839815.7,286046998.1,N
1665839835.6,286047000.0,N
1665839855.4,286047000.2,N
1665839875.3,286047002.3,N
1665839895.1,286046998.8,N
1665839896.0,286046998.8,N
1665839915.8,286046999.1,N
1665839935.7,286046996.9,N
1665839955.5,286046997.0,N
1665839975.3,286046999.1,N
1665839995.2,286046998.2,N
1665840015.0,286047000.8,N
1665840015.9,286047000.8,N
1665840035.8,286047000.6,N
1665840055.6,286047000.4,N
1665840075.4,286047000.0,N
1665840095.3,286047001.5,N
1665840115.1,286047002.8,N
1665840135.8,286047002.7,N
1665840155.7,286047001.9,N
1665840175.5,286047002.0,N
1665840195.4,286047001.0,N
1665840215.2,286047000.3,N
1665840235.0,286047001.0,N
1665840235.9,286047001.0,N
1665840255.8,286047000.0,N
1665840275.6,286047000.7,N
1665840295.4,286047000.2,N
1665840315.3,286046999.9,N
1665840335.1,286047002.6,N
1665840355.9,286046998.2,N
1665840375.7,286047002.7,N
1665840395.5,286047002.8,N
1665840415.4,286047000.2,N
1665840435.2,286047001.0,N
1665840455.0,286047000.5,N
1665840455.9,286047000.5,N
1665840475.8,286047002.2,N
1665840495.6,286047001.4,N
1665840515.5,286047001.3,N
1665840535.3,286047002.1,N
1665840555.1,286047003.6,Y
1665840575.9,286047001.4,P
1665840595.7,286047001.9,P
1665840615.5,286047001.5,P
1665840635.4,286047002.5,Y
1665840655.2,286047000.7,P
1665840675.1,286046998.6,P
1665840676.0,286046998.6,N
1665840695.8,286046999.3,N
1665840715.6,286046998.6,N
1665840735.5,286046998.1,N
1665840755.3,286046998.8,N
1665840775.1,286046998.7,N
1665840795.9,286046995.9,Y
1665840815.7,286046998.0,P
1665840835.6,286046996.8,P
1665840855.4,286046996.2,P
1665840875.2,286046995.7,Y
1665840895.1,286046996.6,P
1665840896.0,286046996.6,P
1665840915.8,286046996.9,P
1665840935.7,286046996.9,Y
1665840955.5,286047000.0,P
1665840975.3,286047000.1,N
1665840995.2,286047002.7,N
1665841015.0,286047002.5,N
1665841015.9,286047002.5,N
1665841035.7,286047000.2,N
1665841055.6,286047001.0,N
1665841075.4,286047000.5,N
1665841095.3,286047002.3,N
1665841115.1,286047001.3,N
1665841116.0,286047001.3,N
1665841135.8,286046999.9,N
1665841155.7,286047000.1,N
1665841175.5,286046999.7,N
1665841195.3,286047004.1,N
1665841215.2,286047003.9,N
1665841235.0,286047002.5,N
1665841235.9,286047002.5,N
1665841255.8,286047002.3,N
1665841275.6,286047004.4,N
1665841295.4,286047003.5,N
1665841315.3,286047002.1,N
1665841335.1,286047004.9,N
1665841355.8,286047005.3,N
1665841375.7,286047000.1,N
1665841395.5,286046998.3,N
1665841415.4,286047002.2,N
1665841435.2,286047004.3,N
1665841455.0,286047001.7,N
1665841455.9,286047001.7,N
1665841475.8,286047003.2,N
1665841495.6,286047005.0,N
1665841515.4,286047005.5,Y
1665841535.3,286047002.5,P
1665841555.1,286047002.7,P
1665841575.9,286047001.9,P
1665841595.7,286047002.1,Y
1665841615.5,286046999.7,P
1665841635.4,286047001.0,N
1665841655.2,286047000.0,N
1665841675.0,286046999.8,N
1665841675.9,286046999.8,N
1665841695.8,286047000.5,N
1665841715.6,286047000.7,N
1665841735.5,286046998.8,N
1665841755.3,286046999.3,N
1665841775.1,286047001.0,N
1665841795.9,286046999.3,N
1665841815.7,286047001.2,N
1665841835.5,286046998.5,N
1665841855.4,286047000.0,N
1665841875.2,286046999.4,N
1665841895.0,286047002.6,N
1665841896.0,286047002.6,N
1665841915.8,286047001.6,N
1665841935.6,286047000.7,N
1665841955.5,286046999.0,N
1665841975.3,286046998.6,N
1665841995.1,286047004.0,Y
1665842015.9,286047001.1,P
1665842035.7,286046999.1,N
1665842055.5,286046998.1,N
1665842075.4,286047001.0,N
1665842095.2,286047000.9,N
1665842115.1,286046998.8,N
1665842116.0,286046998.8,N
1665842135.8,286047000.9,N
1665842155.6,286046998.2,N
1665842175.5,286046999.7,N
1665842195.3,286047002.5,N
1665842215.1,286047002.8,N
1665842235.9,286047002.5,N
1665842255.7,286047002.7,N
1665842275.6,286047001.3,N
1665842295.4,286047002.7,N
1665842315.2,286047000.2,N
1665842335.1,286047001.1,N
1665842336.0,286047001.1,N
1665842355.8,286047001.0,N
1665842375.6,286047000.3,N
1665842395.5,286046998.2,N
